sat.trackr.live / text

‹ back to catalog

QIANFAN-88

NORAD 63174 · 2025-046R

PAYLOAD ACTIVE UNKNOWN

§ Identity

Operator
Country
PRC
Launch date
2025-03-11
Launch site
WSC
Launch vehicle
Mass (kg)
RCS (m²)

External: N2YO · Heavens-Above · Gunter

§ Orbital elements

Epoch: 2026-09-22T20:54:26.540928Z

Period
106.59 min
Inclination
88.9642°
Eccentricity
0.0013240
Mean motion
13.51019797 rev/d
Perigee alt
1,058.6 km
Apogee alt
1,078.4 km
Semi-major
7,446.6 km
B*
1.2558e-4
RAAN
290.3482°
Arg perigee
42.5903°
Mean anomaly
317.6272°
Rev number
8,587

§ Raw data

QIANFAN-881 63174U 25046R   26265.87114052  .00000093  00000+0  12558-3 0  99922 63174  88.9642 290.3482 0013240  42.5903 317.6272 13.51019797 85870

JSON: /api/v1/satellites/63174 · /tle

For live sub-satellite position, see the globe view (requires WebGL).

§ Visibility from observer

Set your observer location to see the next 7 days of passes ≥ 10°. The values pass through the URL so the page stays shareable.

No JS? Fill the form by hand. The geolocation button needs JavaScript.